Location: Krasnoyarskiy Pitomnik
(51.1333°N, 71.6167°E)
Time: 19:25:17
(UTC+00:00)

Vanguard 2 - Pass Details

Date: 23 April 2024
Orbit: 553 x 2914 km, 32.9° (Epoch: 22 May)

Event Time Altitude Azimuth Distance (km) Brightness Sun altitude
Exits shadow 18:02:56 13° 117° (ESE) 5,115 11.3 -24.3°
Drops below altitude 10° 18:05:40 10° 108° (ESE) 5,467 11.5 -24.4°
Sets 18:13:25 0° 89° (E) 6,721 12.2 -24.7°
